U27620 LFRS-LPPT

Flight info

Callsign U27620
Flight time 1h 41m
Altitude 37000
Route ERIGA DCT FUJTI DCT PEPET/N0450F390 DCT BAKUP DCT BATAX DCT INBOM
Aircraft A20N/M-SDE2E3FGHIRWXY/LB1

Departure

Time 2026-04-27 15:08
Airport Nantes Atlantique Airport (LFRS)

Arrival

Time 2026-04-27 16:50
Airport Lisbon Humberto Delgado Airport (LPPT)
Time Latitude Longitude Altitude Speed Heading
2026-04-27 14:55 47.15481 -1.60278 101 ft 0 kts 27°
2026-04-27 15:01 47.15479 -1.60279 101 ft 1 kts 26°
2026-04-27 15:01 47.15472 -1.60284 100 ft 1 kts 16°
2026-04-27 15:01 47.15465 -1.60287 101 ft 1 kts
2026-04-27 15:01 47.15454 -1.60288 99 ft 2 kts 352°
2026-04-27 15:02 47.15439 -1.60283 102 ft 2 kts 333°
2026-04-27 15:02 47.15426 -1.60272 99 ft 2 kts 328°
2026-04-27 15:02 47.15416 -1.60262 98 ft 0 kts 324°
2026-04-27 15:03 47.15419 -1.60268 99 ft 3 kts 315°
2026-04-27 15:03 47.15440 -1.60306 101 ft 6 kts 309°
2026-04-27 15:03 47.15477 -1.60362 102 ft 9 kts 319°
2026-04-27 15:03 47.15535 -1.60438 101 ft 13 kts 310°
2026-04-27 15:04 47.15582 -1.60555 102 ft 14 kts 275°
2026-04-27 15:04 47.15536 -1.60641 103 ft 12 kts 208°
2026-04-27 15:04 47.15454 -1.60700 102 ft 15 kts 210°
2026-04-27 15:04 47.15358 -1.60775 103 ft 16 kts 207°
2026-04-27 15:05 47.15248 -1.60856 99 ft 20 kts 206°
2026-04-27 15:05 47.15118 -1.60952 100 ft 22 kts 208°
2026-04-27 15:05 47.14976 -1.61066 100 ft 24 kts 205°
2026-04-27 15:05 47.14825 -1.61182 99 ft 25 kts 208°
2026-04-27 15:06 47.14663 -1.61302 98 ft 26 kts 207°
2026-04-27 15:06 47.14493 -1.61428 95 ft 28 kts 207°
2026-04-27 15:06 47.14312 -1.61567 92 ft 30 kts 207°
2026-04-27 15:06 47.14170 -1.61700 88 ft 20 kts 249°
2026-04-27 15:07 47.14151 -1.61875 91 ft 14 kts 314°
2026-04-27 15:07 47.14222 -1.61906 92 ft 9 kts 31°
2026-04-27 15:07 47.14303 -1.61847 93 ft 24 kts 27°
2026-04-27 15:07 47.14657 -1.61579 100 ft 91 kts 27°
2026-04-27 15:08 47.15395 -1.61016 103 ft 145 kts 27°
2026-04-27 15:08 47.16349 -1.60419 511 ft 152 kts
2026-04-27 15:08 47.17368 -1.60732 1036 ft 153 kts 325°
2026-04-27 15:08 47.18061 -1.61899 1637 ft 152 kts 303°
2026-04-27 15:09 47.18641 -1.63216 2212 ft 155 kts 302°
2026-04-27 15:09 47.19204 -1.64568 2800 ft 159 kts 300°
2026-04-27 15:09 47.19772 -1.66028 3484 ft 166 kts 298°
2026-04-27 15:09 47.20324 -1.67543 4198 ft 171 kts 297°
2026-04-27 15:10 47.20865 -1.69114 4927 ft 174 kts 296°
2026-04-27 15:10 47.21378 -1.70706 5654 ft 175 kts 294°
2026-04-27 15:10 47.21875 -1.72352 6404 ft 177 kts 292°
2026-04-27 15:10 47.22208 -1.74094 7132 ft 177 kts 276°
2026-04-27 15:11 47.22192 -1.75918 7775 ft 184 kts 262°
2026-04-27 15:11 47.21798 -1.77801 8195 ft 204 kts 245°
2026-04-27 15:11 47.21390 -1.79102 8455 ft 217 kts 245°
2026-04-27 15:11 47.20700 -1.81213 8826 ft 238 kts 244°
2026-04-27 15:12 47.19926 -1.83495 9200 ft 259 kts 243°
2026-04-27 15:12 47.19095 -1.85895 9814 ft 271 kts 243°
2026-04-27 15:12 47.18199 -1.88460 10260 ft 291 kts 243°
2026-04-27 15:12 47.17238 -1.91205 10626 ft 314 kts 243°
2026-04-27 15:13 47.16204 -1.94157 10980 ft 334 kts 243°
2026-04-27 15:13 47.15039 -1.97150 11706 ft 340 kts 236°
2026-04-27 15:13 47.13598 -1.99864 12539 ft 344 kts 228°
2026-04-27 15:13 47.11984 -2.02497 13316 ft 348 kts 228°
2026-04-27 15:14 47.10361 -2.05161 14072 ft 352 kts 228°
2026-04-27 15:14 47.08725 -2.07854 14816 ft 356 kts 228°
2026-04-27 15:14 47.07069 -2.10581 15536 ft 360 kts 228°
2026-04-27 15:14 47.05390 -2.13342 16234 ft 364 kts 228°
2026-04-27 15:15 47.03697 -2.16124 16916 ft 367 kts 228°
2026-04-27 15:15 47.01986 -2.18932 17579 ft 371 kts 228°
2026-04-27 15:15 47.00255 -2.21770 18223 ft 375 kts 228°
2026-04-27 15:15 46.98507 -2.24631 18853 ft 379 kts 228°
2026-04-27 15:16 46.96632 -2.27361 19465 ft 382 kts 221°
2026-04-27 15:16 46.94498 -2.29710 20062 ft 386 kts 213°
2026-04-27 15:16 46.92146 -2.31642 20644 ft 390 kts 207°
2026-04-27 15:16 46.89724 -2.33466 21218 ft 393 kts 207°
2026-04-27 15:17 46.87285 -2.35316 21777 ft 397 kts 207°
2026-04-27 15:17 46.84862 -2.37275 22319 ft 400 kts 211°
2026-04-27 15:17 46.82470 -2.39384 22850 ft 403 kts 211°
2026-04-27 15:17 46.80091 -2.41480 23364 ft 406 kts 211°
2026-04-27 15:18 46.77660 -2.43617 23872 ft 410 kts 211°
2026-04-27 15:18 46.75207 -2.45768 24369 ft 413 kts 211°
2026-04-27 15:18 46.72731 -2.47936 24841 ft 416 kts 211°
2026-04-27 15:18 46.70241 -2.50112 25313 ft 419 kts 211°
2026-04-27 15:19 46.67733 -2.52302 25763 ft 422 kts 211°
2026-04-27 15:19 46.65207 -2.54506 26198 ft 425 kts 211°
2026-04-27 15:19 46.62663 -2.56722 26622 ft 427 kts 211°
2026-04-27 15:19 46.60103 -2.58950 27027 ft 430 kts 211°
2026-04-27 15:20 46.57522 -2.61194 27421 ft 433 kts 211°
2026-04-27 15:20 46.54929 -2.63446 27801 ft 435 kts 211°
2026-04-27 15:20 46.52355 -2.65679 28150 ft 438 kts 211°
2026-04-27 15:20 46.49732 -2.67952 28506 ft 440 kts 211°
2026-04-27 15:21 46.47093 -2.70235 28852 ft 443 kts 211°
2026-04-27 15:21 46.44441 -2.72528 29177 ft 445 kts 211°
2026-04-27 15:21 46.41774 -2.74831 29495 ft 447 kts 211°
2026-04-27 15:21 46.39094 -2.77142 29804 ft 449 kts 211°
2026-04-27 15:22 46.36400 -2.79463 30117 ft 452 kts 211°
2026-04-27 15:22 46.33687 -2.81798 30423 ft 454 kts 211°
2026-04-27 15:22 46.30966 -2.84136 30729 ft 456 kts 211°
2026-04-27 15:22 46.28232 -2.86484 31032 ft 458 kts 211°
2026-04-27 15:23 46.25495 -2.88830 31384 ft 458 kts 211°
2026-04-27 15:23 46.22748 -2.91182 31777 ft 458 kts 211°
2026-04-27 15:23 46.20004 -2.93528 32166 ft 457 kts 211°
2026-04-27 15:23 46.17270 -2.95864 32540 ft 456 kts 211°
2026-04-27 15:24 46.14542 -2.98193 32901 ft 455 kts 211°
2026-04-27 15:24 46.11817 -3.00516 33242 ft 455 kts 211°
2026-04-27 15:24 46.09096 -3.02833 33586 ft 454 kts 211°
2026-04-27 15:24 46.06379 -3.05144 33914 ft 453 kts 211°
2026-04-27 15:25 46.03700 -3.07420 34229 ft 452 kts 211°
2026-04-27 15:25 46.00987 -3.09722 34525 ft 452 kts 211°
2026-04-27 15:25 45.98274 -3.12021 34812 ft 451 kts 211°
2026-04-27 15:25 45.95572 -3.14308 35101 ft 451 kts 211°
2026-04-27 15:26 45.92871 -3.16592 35376 ft 450 kts 211°
2026-04-27 15:26 45.90174 -3.18870 35642 ft 449 kts 211°
2026-04-27 15:26 45.87479 -3.21143 35887 ft 449 kts 211°
2026-04-27 15:26 45.84782 -3.23417 36123 ft 448 kts 211°
2026-04-27 15:27 45.82086 -3.25686 36355 ft 448 kts 211°
2026-04-27 15:27 45.79389 -3.27953 36547 ft 448 kts 211°
2026-04-27 15:27 45.76698 -3.30213 36755 ft 448 kts 211°
2026-04-27 15:27 45.74042 -3.32441 36941 ft 449 kts 211°
2026-04-27 15:28 45.68659 -3.36949 37000 ft 447 kts 210°
2026-04-27 15:28 45.63277 -3.41446 37000 ft 447 kts 210°
2026-04-27 15:29 45.57902 -3.45927 37000 ft 447 kts 210°
2026-04-27 15:29 45.52562 -3.50369 37000 ft 447 kts 210°
2026-04-27 15:30 45.47184 -3.54833 37000 ft 447 kts 210°
2026-04-27 15:30 45.41804 -3.59288 37001 ft 447 kts 210°
2026-04-27 15:31 45.36420 -3.63737 37001 ft 447 kts 210°
2026-04-27 15:31 45.31036 -3.68176 37000 ft 447 kts 210°
2026-04-27 15:32 45.25650 -3.72606 37001 ft 447 kts 210°
2026-04-27 15:32 45.20257 -3.77033 37001 ft 447 kts 210°
2026-04-27 15:33 45.14867 -3.81447 37001 ft 447 kts 210°
2026-04-27 15:33 45.09497 -3.85836 37000 ft 447 kts 210°
2026-04-27 15:34 45.04141 -3.90320 37000 ft 447 kts 211°
2026-04-27 15:34 44.98821 -3.94919 37000 ft 447 kts 211°
2026-04-27 15:35 44.93510 -3.99477 37000 ft 447 kts 211°
2026-04-27 15:35 44.88182 -4.04021 37000 ft 447 kts 211°
2026-04-27 15:36 44.82884 -4.08528 37000 ft 447 kts 211°
2026-04-27 15:36 44.77554 -4.13051 37000 ft 447 kts 211°
2026-04-27 15:37 44.72223 -4.17566 37001 ft 447 kts 211°
2026-04-27 15:37 44.66884 -4.22078 37001 ft 447 kts 211°
2026-04-27 15:38 44.61549 -4.26577 37000 ft 447 kts 211°
2026-04-27 15:38 44.56212 -4.31067 37001 ft 447 kts 211°
2026-04-27 15:39 44.50873 -4.35550 37000 ft 447 kts 211°
2026-04-27 15:39 44.45528 -4.40029 37001 ft 447 kts 211°
2026-04-27 15:40 44.40221 -4.44467 37001 ft 447 kts 211°
2026-04-27 15:40 44.34885 -4.48983 37001 ft 447 kts 211°
2026-04-27 15:41 44.29554 -4.53507 37001 ft 447 kts 211°
2026-04-27 15:41 44.24232 -4.58009 37001 ft 447 kts 211°
2026-04-27 15:42 44.18936 -4.62474 37001 ft 447 kts 211°
2026-04-27 15:42 44.13607 -4.66955 37001 ft 447 kts 211°
2026-04-27 15:43 44.08266 -4.71437 37001 ft 447 kts 211°
2026-04-27 15:43 44.02934 -4.75901 37001 ft 447 kts 211°
2026-04-27 15:44 43.97607 -4.80352 37000 ft 447 kts 211°
2026-04-27 15:44 43.92273 -4.84800 37001 ft 447 kts 211°
2026-04-27 15:45 43.86931 -4.89244 37001 ft 447 kts 211°
2026-04-27 15:45 43.81616 -4.93656 37000 ft 447 kts 211°
2026-04-27 15:46 43.76265 -4.98090 37001 ft 447 kts 211°
2026-04-27 15:46 43.70924 -5.02506 37000 ft 447 kts 211°
2026-04-27 15:47 43.65611 -5.06890 37000 ft 447 kts 211°
2026-04-27 15:47 43.60266 -5.11290 37001 ft 447 kts 211°
2026-04-27 15:48 43.54920 -5.15682 37000 ft 447 kts 211°
2026-04-27 15:49 43.46890 -5.22262 37001 ft 447 kts 211°
2026-04-27 15:49 43.41528 -5.26645 36999 ft 451 kts 211°
2026-04-27 15:50 43.36121 -5.31054 36999 ft 448 kts 211°
2026-04-27 15:50 43.30789 -5.35394 37000 ft 451 kts 211°
2026-04-27 15:51 43.25380 -5.39788 37001 ft 453 kts 211°
2026-04-27 15:51 43.19951 -5.44188 37001 ft 452 kts 211°
2026-04-27 15:52 43.14524 -5.48578 37000 ft 453 kts 211°
2026-04-27 15:52 43.09072 -5.52978 36998 ft 453 kts 211°
2026-04-27 15:53 43.03621 -5.57369 37000 ft 456 kts 211°
2026-04-27 15:53 42.98165 -5.61755 37001 ft 458 kts 211°
2026-04-27 15:54 42.92674 -5.66159 36999 ft 454 kts 211°
2026-04-27 15:54 42.87214 -5.70529 37001 ft 455 kts 211°
2026-04-27 15:55 42.81728 -5.74911 37001 ft 458 kts 211°
2026-04-27 15:55 42.76264 -5.79266 36999 ft 453 kts 210°
2026-04-27 15:56 42.70817 -5.83600 37000 ft 454 kts 210°
2026-04-27 15:56 42.65356 -5.87935 37000 ft 454 kts 210°
2026-04-27 15:57 42.59907 -5.92252 37000 ft 454 kts 210°
2026-04-27 15:57 42.54491 -5.96534 36998 ft 453 kts 210°
2026-04-27 15:58 42.49037 -6.00837 36995 ft 453 kts 210°
2026-04-27 15:58 42.43593 -6.05123 36997 ft 452 kts 210°
2026-04-27 15:59 42.38151 -6.09400 36993 ft 452 kts 210°
2026-04-27 15:59 42.33620 -6.12953 36991 ft 452 kts 210°
2026-04-27 16:00 42.28175 -6.17217 36990 ft 452 kts 210°
2026-04-27 16:00 42.22726 -6.21474 36984 ft 452 kts 210°
2026-04-27 16:01 42.17287 -6.25715 36986 ft 452 kts 210°
2026-04-27 16:01 42.11829 -6.29961 36990 ft 452 kts 210°
2026-04-27 16:02 42.06375 -6.34197 36996 ft 453 kts 210°
2026-04-27 16:02 42.00950 -6.38402 36998 ft 453 kts 210°
2026-04-27 16:03 41.95478 -6.42635 37000 ft 454 kts 210°
2026-04-27 16:03 41.90004 -6.46861 37001 ft 454 kts 210°
2026-04-27 16:04 41.84529 -6.51079 37000 ft 453 kts 210°
2026-04-27 16:04 41.79081 -6.55269 37000 ft 451 kts 210°
2026-04-27 16:05 41.73619 -6.59463 37000 ft 452 kts 210°
2026-04-27 16:05 41.68301 -6.63930 37000 ft 451 kts 217°
2026-04-27 16:06 41.63315 -6.69041 36996 ft 451 kts 218°
2026-04-27 16:06 41.58362 -6.74110 37001 ft 452 kts 217°
2026-04-27 16:07 41.53360 -6.79201 37010 ft 452 kts 217°
2026-04-27 16:07 41.48347 -6.84287 37010 ft 453 kts 217°
2026-04-27 16:08 41.43344 -6.89351 37000 ft 451 kts 217°
2026-04-27 16:08 41.38340 -6.94407 37000 ft 451 kts 217°
2026-04-27 16:09 41.33305 -6.99486 37000 ft 461 kts 217°
2026-04-27 16:09 41.25546 -7.07290 37000 ft 467 kts 217°
2026-04-27 16:10 41.15214 -7.17647 36485 ft 464 kts 217°
2026-04-27 16:11 41.12639 -7.20220 35964 ft 461 kts 217°
2026-04-27 16:11 41.07545 -7.25306 34392 ft 464 kts 217°
2026-04-27 16:12 41.02352 -7.30480 32638 ft 468 kts 217°
2026-04-27 16:12 40.99743 -7.33075 31663 ft 471 kts 217°
2026-04-27 16:12 40.94488 -7.38295 30078 ft 469 kts 217°
2026-04-27 16:13 40.91895 -7.40867 29487 ft 463 kts 217°
2026-04-27 16:13 40.86804 -7.45908 29236 ft 463 kts 217°
2026-04-27 16:13 40.84219 -7.48465 29132 ft 462 kts 217°
2026-04-27 16:14 40.78965 -7.53652 28999 ft 481 kts 217°
2026-04-27 16:14 40.73589 -7.58949 29000 ft 482 kts 217°
2026-04-27 16:15 40.62887 -7.69461 29000 ft 481 kts 217°
2026-04-27 16:16 40.52150 -7.79964 29000 ft 480 kts 217°
2026-04-27 16:17 40.41424 -7.90415 29000 ft 480 kts 217°
2026-04-27 16:18 40.30727 -8.00794 29000 ft 480 kts 217°
2026-04-27 16:19 40.25366 -8.05981 29000 ft 479 kts 217°
2026-04-27 16:20 40.14629 -8.16336 29001 ft 480 kts 217°
2026-04-27 16:21 40.06681 -8.23975 28998 ft 451 kts 216°
2026-04-27 16:21 39.98937 -8.29981 28999 ft 435 kts 198°
2026-04-27 16:22 39.96022 -8.30862 28999 ft 435 kts 187°
2026-04-27 16:22 39.87030 -8.32220 28944 ft 432 kts 187°
2026-04-27 16:23 39.84045 -8.32677 28747 ft 430 kts 187°
2026-04-27 16:23 39.78252 -8.33564 28520 ft 406 kts 187°
2026-04-27 16:23 39.75450 -8.33993 28304 ft 413 kts 187°
2026-04-27 16:24 39.72579 -8.34436 28186 ft 423 kts 188°
2026-04-27 16:24 39.67236 -8.37175 28049 ft 407 kts 218°
2026-04-27 16:25 39.63670 -8.42551 27709 ft 384 kts 237°
2026-04-27 16:25 39.60751 -8.48189 27210 ft 373 kts 235°
2026-04-27 16:26 39.57260 -8.53178 26711 ft 374 kts 218°
2026-04-27 16:26 39.52894 -8.56790 26211 ft 370 kts 211°
2026-04-27 16:27 39.48532 -8.60204 25714 ft 367 kts 211°
2026-04-27 16:27 39.41998 -8.65328 24963 ft 363 kts 211°
2026-04-27 16:28 39.37694 -8.68696 24462 ft 360 kts 211°
2026-04-27 16:28 39.33419 -8.72036 23954 ft 358 kts 211°
2026-04-27 16:29 39.27641 -8.77928 23214 ft 353 kts 222°
2026-04-27 16:30 39.23987 -8.82119 22714 ft 350 kts 221°
2026-04-27 16:30 39.20354 -8.86269 22213 ft 347 kts 221°
2026-04-27 16:31 39.14940 -8.92444 20981 ft 343 kts 221°
2026-04-27 16:31 39.11392 -8.96485 20113 ft 338 kts 221°
2026-04-27 16:32 39.07892 -9.00465 19299 ft 333 kts 221°
2026-04-27 16:32 39.06167 -9.02425 18892 ft 330 kts 221°
2026-04-27 16:33 39.02765 -9.06285 18174 ft 323 kts 221°
2026-04-27 16:33 39.01058 -9.08178 17913 ft 325 kts 218°
2026-04-27 16:33 38.99155 -9.09765 17672 ft 325 kts 208°
2026-04-27 16:33 38.97081 -9.10948 17429 ft 324 kts 202°
2026-04-27 16:34 38.95000 -9.12042 17088 ft 323 kts 202°
2026-04-27 16:34 38.92920 -9.13150 16689 ft 321 kts 203°
2026-04-27 16:34 38.90869 -9.14249 16296 ft 319 kts 203°
2026-04-27 16:34 38.88827 -9.15343 15896 ft 316 kts 203°
2026-04-27 16:35 38.86806 -9.16425 15566 ft 312 kts 203°
2026-04-27 16:35 38.84908 -9.17663 15225 ft 307 kts 218°
2026-04-27 16:35 38.81945 -9.21793 13735 ft 325 kts 230°
2026-04-27 16:36 38.80472 -9.24040 12932 ft 334 kts 230°
2026-04-27 16:36 38.78958 -9.26337 12361 ft 335 kts 230°
2026-04-27 16:36 38.77452 -9.28601 11905 ft 332 kts 230°
2026-04-27 16:36 38.75972 -9.30813 11429 ft 330 kts 229°
2026-04-27 16:37 38.74480 -9.33033 10950 ft 327 kts 229°
2026-04-27 16:37 38.72994 -9.35241 10484 ft 325 kts 229°
2026-04-27 16:37 38.71539 -9.37402 10268 ft 314 kts 229°
2026-04-27 16:37 38.70142 -9.39475 10142 ft 301 kts 229°
2026-04-27 16:38 38.68792 -9.41477 9762 ft 298 kts 229°
2026-04-27 16:38 38.67421 -9.43510 9054 ft 306 kts 229°
2026-04-27 16:38 38.66019 -9.45586 8600 ft 305 kts 229°
2026-04-27 16:38 38.64659 -9.47599 8488 ft 291 kts 229°
2026-04-27 16:39 38.63363 -9.49517 8373 ft 279 kts 229°
2026-04-27 16:39 38.62090 -9.51399 8269 ft 281 kts 229°
2026-04-27 16:39 38.60810 -9.53284 8160 ft 280 kts 227°
2026-04-27 16:39 38.59248 -9.54730 8043 ft 279 kts 202°
2026-04-27 16:40 38.57339 -9.55123 8005 ft 280 kts 175°
2026-04-27 16:40 38.55414 -9.54722 8000 ft 281 kts 167°
2026-04-27 16:40 38.53511 -9.54133 7999 ft 281 kts 166°
2026-04-27 16:40 38.51611 -9.53539 8001 ft 281 kts 167°
2026-04-27 16:41 38.49750 -9.52779 8000 ft 281 kts 156°
2026-04-27 16:41 38.48078 -9.51528 7998 ft 282 kts 142°
2026-04-27 16:41 38.46834 -9.49628 8001 ft 282 kts 115°
2026-04-27 16:41 38.46382 -9.47204 8001 ft 283 kts 89°
2026-04-27 16:42 38.46826 -9.44789 7999 ft 283 kts 62°
2026-04-27 16:42 38.47943 -9.42723 7998 ft 283 kts 52°
2026-04-27 16:42 38.49157 -9.40762 7972 ft 281 kts 51°
2026-04-27 16:42 38.50376 -9.38796 7639 ft 283 kts 51°
2026-04-27 16:43 38.51584 -9.36803 7232 ft 284 kts 52°
2026-04-27 16:43 38.52375 -9.35474 6979 ft 282 kts 52°
2026-04-27 16:43 38.53532 -9.33508 6870 ft 270 kts 53°
2026-04-27 16:43 38.54631 -9.31623 6751 ft 258 kts 53°
2026-04-27 16:44 38.55704 -9.29781 6353 ft 259 kts 53°
2026-04-27 16:44 38.56753 -9.27976 6204 ft 245 kts 53°
2026-04-27 16:44 38.57724 -9.26304 6130 ft 220 kts 53°
2026-04-27 16:44 38.58586 -9.24819 5935 ft 197 kts 53°
2026-04-27 16:45 38.59515 -9.23605 5555 ft 190 kts 33°
2026-04-27 16:45 38.60700 -9.22887 5089 ft 187 kts 21°
2026-04-27 16:45 38.61894 -9.22264 4526 ft 184 kts 22°
2026-04-27 16:45 38.62997 -9.21669 4387 ft 160 kts 22°
2026-04-27 16:46 38.63956 -9.21159 4285 ft 143 kts 21°
2026-04-27 16:46 38.64864 -9.20676 4181 ft 142 kts 22°
2026-04-27 16:46 38.65797 -9.20177 3804 ft 146 kts 22°
2026-04-27 16:46 38.66738 -9.19657 3421 ft 147 kts 22°
2026-04-27 16:47 38.67684 -9.19155 3025 ft 148 kts 21°
2026-04-27 16:47 38.68642 -9.18648 2630 ft 147 kts 21°
2026-04-27 16:47 38.69587 -9.18153 2250 ft 146 kts 21°
2026-04-27 16:47 38.70522 -9.17656 1897 ft 145 kts 22°
2026-04-27 16:48 38.71447 -9.17157 1564 ft 144 kts 22°
2026-04-27 16:48 38.72360 -9.16666 1268 ft 140 kts 21°
2026-04-27 16:48 38.73232 -9.16208 1094 ft 135 kts 22°
2026-04-27 16:49 38.74968 -9.15292 741 ft 134 kts 21°
2026-04-27 16:49 38.75831 -9.14826 560 ft 135 kts 22°
2026-04-27 16:49 38.76689 -9.14362 393 ft 133 kts 22°
2026-04-27 16:49 38.77504 -9.13924 363 ft 109 kts 21°
2026-04-27 16:50 38.78032 -9.13646 366 ft 64 kts 22°
2026-04-27 16:50 38.78249 -9.13503 365 ft 27 kts 36°
2026-04-27 16:50 38.78361 -9.13350 362 ft 16 kts 60°
2026-04-27 16:50 38.78365 -9.13336 366 ft 0 kts 69°
2026-04-27 16:51 38.78368 -9.13328 366 ft 0 kts 69°
2026-04-27 16:51 38.78370 -9.13319 361 ft 4 kts 71°
2026-04-27 16:51 38.78360 -9.13275 360 ft 8 kts 122°
2026-04-27 16:52 38.78312 -9.13266 361 ft 9 kts 194°
2026-04-27 16:52 38.78242 -9.13298 360 ft 13 kts 201°
2026-04-27 16:52 38.78153 -9.13351 357 ft 16 kts 203°
2026-04-27 16:52 38.78043 -9.13407 364 ft 18 kts 193°
2026-04-27 16:53 38.77899 -9.13382 350 ft 24 kts 167°
2026-04-27 16:53 38.77718 -9.13333 336 ft 30 kts 168°
2026-04-27 16:53 38.77526 -9.13302 335 ft 24 kts 168°
2026-04-27 16:53 38.77371 -9.13264 335 ft 23 kts 171°
2026-04-27 16:54 38.77207 -9.13226 333 ft 25 kts 167°
2026-04-27 16:54 38.77032 -9.13178 338 ft 26 kts 168°
2026-04-27 16:54 38.76928 -9.13129 336 ft 8 kts 109°
2026-04-27 16:54 38.76936 -9.13073 335 ft 8 kts 81°
2026-04-27 16:55 38.76937 -9.13065 336 ft 0 kts 81°